�������l�o���
Date,Time,MP-1(��Sv/h),MP-2(��Sv/h),MP-3(��Sv/h),MP-4(��Sv/h),MP-5(��Sv/h),MP-6(��Sv/h),MP-7(��Sv/h),MP-8(��Sv/h),����,����(m/s),���J
2023/06/24,00:00,0.511,0.773,0.477,0.931,0.672,0.319,0.554,0.524,���쐼,1.5,�L
2023/06/24,00:10,0.511,0.773,0.477,0.931,0.673,0.317,0.552,0.525,�k��,2.0,�L
2023/06/24,00:20,0.511,0.771,0.476,0.932,0.671,0.319,0.553,0.526,-,CALM,�L
2023/06/24,00:30,0.511,0.770,0.475,0.933,0.671,0.318,0.554,0.526,-,CALM,�L
2023/06/24,00:40,0.511,0.773,0.474,0.931,0.673,0.319,0.553,0.526,�쐼,1.2,�L
2023/06/24,00:50,0.511,0.770,0.474,0.932,0.672,0.318,0.554,0.527,��,1.5,�L
2023/06/24,01:00,0.509,0.772,0.476,0.931,0.671,0.318,0.554,0.526,��,0.9,�L
2023/06/24,01:10,0.511,0.771,0.475,0.930,0.673,0.317,0.554,0.525,-,CALM,�L
2023/06/24,01:20,0.511,0.771,0.474,0.931,0.672,0.318,0.554,0.526,-,CALM,�L
2023/06/24,01:30,0.510,0.771,0.474,0.934,0.674,0.318,0.554,0.526,��,1.7,��
2023/06/24,01:40,0.512,0.771,0.474,0.932,0.672,0.317,0.555,0.525,��,0.9,��
2023/06/24,01:50,0.512,0.771,0.474,0.931,0.671,0.318,0.554,0.525,�쐼,0.6,�L
2023/06/24,02:00,0.510,0.771,0.474,0.930,0.671,0.319,0.554,0.525,-,CALM,�L
2023/06/24,02:10,0.511,0.770,0.473,0.931,0.672,0.319,0.555,0.526,-,CALM,��
2023/06/24,02:20,0.509,0.770,0.475,0.933,0.672,0.318,0.553,0.526,-,CALM,��
2023/06/24,02:30,0.512,0.769,0.474,0.930,0.671,0.320,0.555,0.526,��쐼,0.9,��
2023/06/24,02:40,0.509,0.771,0.475,0.931,0.673,0.320,0.553,0.525,��쓌,0.6,��
2023/06/24,02:50,0.509,0.770,0.474,0.934,0.671,0.318,0.555,0.524,�쓌,0.6,��
2023/06/24,03:00,0.509,0.772,0.475,0.930,0.673,0.319,0.556,0.526,-,CALM,��
2023/06/24,03:10,0.509,0.770,0.474,0.929,0.671,0.318,0.554,0.525,�쓌,1.5,��
2023/06/24,03:20,0.510,0.770,0.474,0.931,0.673,0.318,0.553,0.526,-,CALM,��
2023/06/24,03:30,0.510,0.772,0.475,0.930,0.673,0.319,0.555,0.526,-,CALM,��
2023/06/24,03:40,0.511,0.772,0.475,0.932,0.673,0.318,0.555,0.526,�k��,1.7,��
2023/06/24,03:50,0.511,0.772,0.476,0.932,0.674,0.319,0.553,0.526,�k��,2.2,��
2023/06/24,04:00,0.510,0.770,0.475,0.932,0.674,0.318,0.556,0.527,�k��,2.6,��
2023/06/24,04:10,0.511,0.770,0.475,0.931,0.674,0.319,0.555,0.526,�k�k��,3.5,��
2023/06/24,04:20,0.511,0.772,0.476,0.930,0.676,0.319,0.555,0.526,�k�k��,2.8,��
2023/06/24,04:30,0.512,0.773,0.476,0.932,0.673,0.319,0.556,0.525,�k�k��,2.6,��
2023/06/24,04:40,0.512,0.770,0.475,0.931,0.673,0.319,0.556,0.527,�k�k��,2.0,��
2023/06/24,04:50,0.512,0.773,0.475,0.932,0.672,0.320,0.557,0.526,�k��,1.5,��
2023/06/24,05:00,0.513,0.773,0.474,0.932,0.673,0.319,0.555,0.526,�k��,2.0,��
2023/06/24,05:10,0.512,0.772,0.475,0.933,0.672,0.320,0.554,0.526,�k��,3.1,��
2023/06/24,05:20,0.512,0.771,0.476,0.931,0.672,0.319,0.555,0.526,�k�k��,2.9,��
2023/06/24,05:30,0.511,0.772,0.474,0.933,0.673,0.320,0.556,0.527,�k,2.5,��
2023/06/24,05:40,0.512,0.771,0.475,0.931,0.673,0.319,0.556,0.525,�k,2.6,��
2023/06/24,05:50,0.511,0.772,0.476,0.935,0.674,0.318,0.555,0.527,�k,1.5,��
2023/06/24,06:00,0.513,0.772,0.477,0.934,0.673,0.318,0.554,0.526,�k,1.4,��
2023/06/24,06:10,0.511,0.773,0.476,0.932,0.674,0.319,0.553,0.527,�k,1.1,��
2023/06/24,06:20,0.511,0.773,0.474,0.931,0.673,0.318,0.555,0.526,-,CALM,��
2023/06/24,06:30,0.510,0.771,0.474,0.932,0.675,0.318,0.555,0.526,-,CALM,�L
2023/06/24,06:40,0.510,0.771,0.474,0.934,0.673,0.319,0.553,0.527,-,CALM,��
2023/06/24,06:50,0.509,0.771,0.475,0.932,0.673,0.318,0.556,0.525,��,0.6,��
2023/06/24,07:00,0.510,0.770,0.471,0.932,0.674,0.317,0.554,0.524,-,CALM,��
2023/06/24,07:10,0.511,0.770,0.473,0.930,0.675,0.317,0.553,0.524,�k��,1.1,��
2023/06/24,07:20,0.508,0.769,0.473,0.930,0.671,0.315,0.553,0.525,�k�k��,1.5,��
2023/06/24,07:30,0.508,0.768,0.474,0.930,0.671,0.316,0.553,0.524,�k��,1.2,��
2023/06/24,07:40,0.510,0.768,0.472,0.931,0.672,0.314,0.552,0.523,�k��,1.2,��
2023/06/24,07:50,0.509,0.766,0.474,0.930,0.671,0.315,0.551,0.523,���k��,1.4,��
2023/06/24,08:00,0.508,0.770,0.472,0.931,0.673,0.315,0.553,0.524,�k��,1.2,��
2023/06/24,08:10,0.508,0.768,0.474,0.929,0.671,0.315,0.552,0.524,�k��,1.5,��
2023/06/24,08:20,0.510,0.769,0.474,0.932,0.670,0.316,0.553,0.524,�k��,1.4,��
2023/06/24,08:30,0.510,0.769,0.474,0.931,0.671,0.317,0.554,0.524,���k��,1.7,��
2023/06/24,08:40,0.508,0.770,0.474,0.929,0.672,0.317,0.554,0.522,��,1.2,��
2023/06/24,08:50,0.510,0.771,0.472,0.930,0.672,0.316,0.552,0.522,���k��,1.5,��
2023/06/24,09:00,0.510,0.772,0.472,0.930,0.672,0.317,0.553,0.523,��,1.2,��
2023/06/24,09:10,0.510,0.774,0.473,0.931,0.672,0.317,0.554,0.524,�k��,2.2,��
2023/06/24,09:20,0.511,0.773,0.473,0.930,0.672,0.316,0.553,0.524,���k��,1.5,��
2023/06/24,09:30,0.511,0.770,0.474,0.929,0.672,0.317,0.555,0.522,��,1.5,��
2023/06/24,09:40,0.510,0.773,0.473,0.930,0.673,0.318,0.553,0.524,��,1.5,��
2023/06/24,09:50,0.511,0.771,0.473,0.928,0.672,0.318,0.554,0.524,���쓌,1.7,�L
2023/06/24,10:00,0.510,0.774,0.473,0.929,0.673,0.318,0.554,0.524,��,1.5,��
2023/06/24,10:10,0.513,0.774,0.474,0.931,0.672,0.315,0.554,0.523,���k��,1.7,��
2023/06/24,10:20,0.512,0.775,0.473,0.929,0.674,0.318,0.555,0.523,���쓌,2.3,��
2023/06/24,10:30,0.511,0.775,0.475,0.927,0.675,0.317,0.555,0.525,��,1.7,��
2023/06/24,10:40,0.511,0.774,0.476,0.930,0.675,0.317,0.553,0.524,���쓌,2.9,��
2023/06/24,10:50,0.511,0.776,0.474,0.930,0.676,0.316,0.553,0.525,���쓌,2.5,��
2023/06/24,11:00,0.512,0.776,0.474,0.929,0.676,0.319,0.555,0.524,���쓌,2.3,��
2023/06/24,11:10,0.513,0.776,0.475,0.930,0.677,0.319,0.555,0.526,���쓌,2.9,��
2023/06/24,11:20,0.513,0.777,0.475,0.929,0.677,0.317,0.555,0.525,��,2.9,��
2023/06/24,11:30,0.513,0.777,0.476,0.931,0.674,0.319,0.554,0.523,��,2.6,��
2023/06/24,11:40,0.514,0.777,0.476,0.931,0.675,0.317,0.555,0.525,��,3.3,��
2023/06/24,11:50,0.515,0.778,0.476,0.930,0.675,0.318,0.555,0.525,��,2.3,��
2023/06/24,12:00,0.513,0.776,0.477,0.931,0.675,0.317,0.554,0.525,��,2.0,��
2023/06/24,12:10,0.514,0.777,0.477,0.933,0.676,0.319,0.554,0.525,���k��,1.7,��
2023/06/24,12:20,0.512,0.777,0.477,0.932,0.676,0.316,0.556,0.526,��,2.3,��
2023/06/24,12:30,0.514,0.778,0.477,0.931,0.678,0.318,0.554,0.525,��,2.6,��
2023/06/24,12:40,0.514,0.780,0.477,0.932,0.678,0.319,0.555,0.525,���k��,1.5,��
2023/06/24,12:50,0.515,0.778,0.477,0.933,0.680,0.319,0.558,0.526,���쓌,2.6,��
2023/06/24,13:00,0.514,0.779,0.478,0.931,0.678,0.318,0.554,0.524,�쓌,2.5,��
2023/06/24,13:10,0.514,0.777,0.480,0.932,0.679,0.319,0.557,0.525,�쓌,3.1,��
2023/06/24,13:20,0.516,0.779,0.479,0.932,0.679,0.320,0.557,0.527,�쓌,3.6,��
2023/06/24,13:30,0.515,0.779,0.480,0.933,0.679,0.319,0.556,0.526,�쓌,4.0,��
2023/06/24,13:40,0.516,0.781,0.478,0.933,0.680,0.319,0.556,0.526,�쓌,4.2,��
2023/06/24,13:50,0.515,0.779,0.478,0.934,0.679,0.319,0.556,0.526,�쓌,4.1,��
2023/06/24,14:00,0.515,0.780,0.479,0.934,0.678,0.319,0.557,0.526,��쓌,3.8,��
2023/06/24,14:10,0.517,0.780,0.477,0.935,0.680,0.319,0.557,0.526,��쓌,4.7,��
2023/06/24,14:20,0.517,0.781,0.479,0.935,0.680,0.317,0.557,0.526,��쓌,5.4,��
2023/06/24,14:30,0.517,0.779,0.479,0.935,0.681,0.320,0.558,0.527,��쓌,4.2,��
2023/06/24,14:40,0.515,0.780,0.478,0.935,0.680,0.320,0.558,0.527,��쓌,6.3,��
2023/06/24,14:50,0.516,0.782,0.478,0.936,0.681,0.319,0.558,0.526,��쓌,7.2,��
2023/06/24,15:00,0.516,0.780,0.479,0.934,0.682,0.319,0.557,0.525,��쓌,6.3,��
2023/06/24,15:10,0.516,0.782,0.480,0.937,0.682,0.320,0.558,0.526,��쓌,6.7,��
2023/06/24,15:20,0.517,0.783,0.479,0.934,0.681,0.320,0.558,0.526,��쓌,6.7,��
2023/06/24,15:30,0.517,0.783,0.478,0.934,0.681,0.320,0.559,0.527,��쓌,6.4,��
2023/06/24,15:40,0.516,0.780,0.479,0.937,0.682,0.318,0.556,0.525,��쓌,7.5,��
2023/06/24,15:50,0.516,0.782,0.478,0.937,0.680,0.321,0.558,0.526,��쓌,6.6,��
2023/06/24,16:00,0.518,0.781,0.478,0.936,0.682,0.320,0.558,0.527,��쓌,6.2,��
2023/06/24,16:10,0.516,0.781,0.478,0.936,0.682,0.319,0.557,0.526,��쓌,6.7,��
2023/06/24,16:20,0.517,0.782,0.477,0.936,0.683,0.320,0.556,0.526,��쓌,4.9,��
2023/06/24,16:30,0.516,0.781,0.480,0.935,0.682,0.319,0.558,0.526,��쓌,4.2,�L
2023/06/24,16:40,0.516,0.783,0.480,0.937,0.681,0.319,0.557,0.526,��쓌,4.7,��
2023/06/24,16:50,0.517,0.782,0.481,0.936,0.681,0.318,0.558,0.525,��,4.5,�L
2023/06/24,17:00,0.517,0.781,0.481,0.937,0.681,0.320,0.557,0.526,��쓌,5.6,�L
2023/06/24,17:10,0.517,0.782,0.481,0.940,0.682,0.319,0.557,0.526,��쓌,6.1,��
2023/06/24,17:20,0.517,0.784,0.481,0.938,0.682,0.319,0.558,0.528,��,5.5,��
2023/06/24,17:30,0.517,0.782,0.481,0.940,0.681,0.319,0.558,0.528,��,5.3,��
2023/06/24,17:40,0.517,0.782,0.480,0.940,0.682,0.318,0.557,0.526,��,4.6,��
2023/06/24,17:50,0.516,0.783,0.480,0.937,0.680,0.317,0.556,0.527,��쓌,5.4,��
2023/06/24,18:00,0.516,0.782,0.481,0.940,0.681,0.319,0.558,0.526,��쓌,4.2,��
2023/06/24,18:10,0.517,0.781,0.481,0.939,0.681,0.318,0.560,0.529,��쓌,3.6,��
2023/06/24,18:20,0.517,0.782,0.483,0.938,0.683,0.318,0.558,0.527,��,3.6,��
2023/06/24,18:30,0.517,0.782,0.482,0.940,0.682,0.319,0.560,0.528,��쓌,3.4,��
2023/06/24,18:40,0.518,0.784,0.482,0.939,0.683,0.319,0.560,0.530,��쓌,4.8,��
2023/06/24,18:50,0.518,0.783,0.480,0.941,0.681,0.320,0.560,0.528,��,4.8,��
2023/06/24,19:00,0.516,0.781,0.482,0.940,0.681,0.318,0.559,0.529,��쓌,4.3,��
2023/06/24,19:10,0.517,0.782,0.482,0.938,0.684,0.319,0.560,0.528,��,3.9,��
2023/06/24,19:20,0.517,0.785,0.481,0.941,0.682,0.319,0.558,0.528,��쓌,2.6,��
2023/06/24,19:30,0.517,0.782,0.482,0.942,0.684,0.319,0.558,0.529,��,2.5,��
2023/06/24,19:40,0.515,0.784,0.482,0.938,0.684,0.318,0.559,0.529,��쓌,2.3,��
2023/06/24,19:50,0.517,0.782,0.481,0.941,0.684,0.319,0.561,0.529,��쓌,3.2,��
2023/06/24,20:00,0.518,0.786,0.482,0.940,0.685,0.320,0.560,0.529,��,2.3,��
2023/06/24,20:10,0.518,0.783,0.480,0.940,0.684,0.320,0.561,0.529,��쓌,1.2,��
2023/06/24,20:20,0.519,0.785,0.482,0.937,0.684,0.320,0.559,0.528,��,1.7,��
2023/06/24,20:30,0.519,0.785,0.482,0.940,0.685,0.320,0.560,0.528,��쐼,1.7,��
2023/06/24,20:40,0.519,0.787,0.481,0.939,0.685,0.320,0.559,0.527,��,1.7,��
2023/06/24,20:50,0.519,0.784,0.481,0.938,0.685,0.321,0.562,0.528,��쐼,1.4,��
2023/06/24,21:00,0.519,0.785,0.482,0.940,0.684,0.320,0.559,0.529,��쐼,1.2,��
2023/06/24,21:10,0.519,0.785,0.480,0.941,0.684,0.319,0.560,0.527,��쐼,0.9,��
2023/06/24,21:20,0.517,0.787,0.481,0.939,0.685,0.320,0.559,0.529,���쐼,0.6,��
2023/06/24,21:30,0.517,0.785,0.482,0.939,0.683,0.319,0.560,0.530,�쐼,0.9,��
2023/06/24,21:40,0.518,0.784,0.481,0.942,0.684,0.321,0.559,0.528,��,0.9,��
2023/06/24,21:50,0.519,0.785,0.481,0.940,0.685,0.321,0.562,0.529,���k��,0.6,��
2023/06/24,22:00,0.518,0.785,0.482,0.941,0.683,0.322,0.559,0.527,���k��,0.9,��
2023/06/24,22:10,0.519,0.785,0.481,0.940,0.685,0.321,0.560,0.528,�k��,1.5,��
2023/06/24,22:20,0.517,0.785,0.481,0.940,0.684,0.322,0.560,0.528,�k��,0.6,��
2023/06/24,22:30,0.519,0.784,0.482,0.939,0.685,0.321,0.561,0.527,�k��,0.6,��
2023/06/24,22:40,0.519,0.783,0.481,0.942,0.685,0.321,0.561,0.528,�k��,1.2,��
2023/06/24,22:50,0.519,0.787,0.483,0.940,0.684,0.322,0.561,0.528,���k��,1.1,��
2023/06/24,23:00,0.519,0.786,0.482,0.940,0.685,0.321,0.562,0.528,���k��,0.9,��
2023/06/24,23:10,0.517,0.784,0.482,0.941,0.686,0.322,0.561,0.530,�k��,1.9,��
2023/06/24,23:20,0.519,0.786,0.482,0.941,0.688,0.321,0.561,0.529,�k��,2.5,��
2023/06/24,23:30,0.519,0.785,0.482,0.941,0.687,0.324,0.562,0.529,�k�k��,2.6,��
2023/06/24,23:40,0.519,0.788,0.482,0.941,0.687,0.321,0.562,0.529,�k�k��,3.9,��
2023/06/24,23:50,0.519,0.785,0.482,0.944,0.686,0.322,0.562,0.529,�k,2.6,��
